NILESAT 102 (26470 NORAD) Tracking and Keplerian Element Data

This shows tracking and keplerian element data for the satellite.

Feedback or suggestion? Click here.




ElementValue
Catalog26470
NameNILESAT 102
Epoch Orbit6596
Epoch Day231.69709692
Epoch Year2018
RAAN81.738
Inclination2.5802
Eccentricity0.0004501
Argument of Perigee31.6598
Mean Anonmoly338.6022
Mean Motion0.98042223
Decay Rate-4.5E-07
L11 26470U 00046B 18231.69709692 -.00000045 00000-0 00000+0 0 9991
L22 26470 2.5802 81.7380 0004501 31.6598 338.6022 0.98042223 65967



Live tracking and technical data element details for NILESAT 102 (NORAD 26470). NILESAT 102 can be tracked NOW for your location showing map with azimuth and elevation plus other details from your city location.







IsCatalogInMostPopularTable: catalog: 26470, numindb: 476
Update: records affected: 1



GetName: 26470 NILESAT 102

Hit Count: updated at: Sat, 14 Mar 2026 02:13:51 GMT